Regional Weather Roundup
Issued by NWS Green Bay, WI

Home | Current Version | Previous Version | Text Only | Print | Product List | Glossary On
Versions: 1 2 3 4 5 6 7 8 9 10 11 12 13 14 15 16 17 18 19 20 21 22 23 24 25 26 27 28 29 30 31 32 33 34 35 36 37 38 39 40 41 42 43 44 45 46 47 48 49 50
000
ASUS43 KGRB 120612
RWRGRB

NORTH-CENTRAL AND NORTHEAST WISCONSIN REGIONAL WEATHER ROUNDUP
NATIONAL WEATHER SERVICE GREEN BAY WI
100 AM CDT WED AUG 12 2020

WIZ005-009-010>012-018-019-120700-
NORTH CENTRAL WISCONSIN

CITY           SKY/WX    TMP DP  RH WIND       PRES   REMARKS
IRONWOOD       CLEAR     65  59  81 CALM      30.01R
MANITOWISH WTR PTCLDY    60  60  99 SW3       30.04R
ARBOR VITAE    PTCLDY    63  58  85 CALM      30.05R
EAGLE RIVER    PTCLDY    61  55  82 W5        30.03S
LAND O LAKES   PTCLDY    63  57  81 CALM      30.05R
RHINELANDER    PTCLDY    57  53  86 W3        30.06R
PHILLIPS       PTCLDY    60  60 100 CALM      30.04S
ANTIGO         CLEAR     56  55  94 CALM      30.06R
TOMAHAWK       PTCLDY    57  55  94 CALM      30.06R
MERRILL        PTCLDY    60  57  89 CALM      30.05R
$$

WIZ013-073-120700-
NORTHEAST WISCONSIN

CITY           SKY/WX    TMP DP  RH WIND       PRES   REMARKS
IRON MOUNTAIN  CLEAR     67  55  65 W3        30.00R
MARINETTE      CLEAR     65  57  75 W5        30.02R
OCONTO         CLEAR     56  55  95 CALM      30.02R
$$

WIZ017-030-035>037-045-120700-
CENTRAL WISCONSIN

CITY           SKY/WX    TMP DP  RH WIND       PRES   REMARKS
MEDFORD        CLEAR     55  54  98 CALM      30.05R
WAUSAU         CLEAR     62  57  83 CALM      30.04R
MOSINEE        CLEAR     61  54  77 SW6       30.06R
MARSHFIELD     CLEAR     60  55  83 CALM      30.05R
WISC RAPIDS    CLEAR     60  56  86 CALM      30.06R
STEVENS POINT  CLEAR     56  53  91 CALM      30.06R
WAUPACA        CLEAR     60  58  91 CALM      30.04S
SHAWANO        CLEAR     61  57  87 CALM      30.03R
CLINTONVILLE   CLEAR     61  54  76 CALM      30.03S
WAUTOMA        CLEAR     57  55  93 CALM      30.05R
$$

WIZ038-039-048-051-120700-
FOX VALLEY

CITY           SKY/WX    TMP DP  RH WIND       PRES   REMARKS
NWS GREEN BAY  CLEAR     61  55  81 CALM      30.02R
APPLETON       CLEAR     61  50  67 W6        30.03R
OSHKOSH        CLEAR     66  56  70 SW5       30.03R
FOND DU LAC    CLEAR     64  57  78 SW5       30.05R
$$

WIZ022-050-052-120700-
EAST CENTRAL WISCONSIN

CITY           SKY/WX    TMP DP  RH WIND       PRES   REMARKS
EPHRAIM        FAIR      68  59  73 W6        30.00R
WASHINGTON ISL MOCLDY    68  61  77 SW7       29.99R
STURGEON BAY   CLEAR     68  58  70 W5        30.03R
MANITOWOC      CLEAR     65  56  72 SW5       30.03S
SHEBOYGAN      CLEAR     63  57  81 SW5       30.04R
$$

LMZ563-521-522-541>543-120700-
LAKESHORE

STATION/POSITION TIME  TEMP    WIND        PRES    VSBY  WAVE
                       AIR SEA DIR/SP/G                  HT/PER
                 (UTC) (F)     (DEG/KT/KT) (MB)    (MI)  (FT/S)
SHEBOYGAN LKSHOR 0600   68     260/  9/ 10   N/A
KEWAUNEE LKSHORE 0524   67      CALM  /  2 1016.0
NORTHPORT PIER   0540   72     200/  3/  6 1015.2R
N MID LAKE BUOY  0600   71 69  240/ 12/ 14 1015.2
S GREEN BAY BUOY 0530   73     230/  8/ 10 1015.0R
SISTER BAY LKSHO 0600   73     280/  9/ 10   N/A
CHAMBERS ISLAND  0540   68     160/  3/  6   N/A
MENOMINEE LKSHOR 0524   71 71  260/  6/  8 1015.6
$$



USA.gov is the U.S. government's official web portal to all federal, state and local government web resources and services.